Location: Unspecified
(0.0000°N, 0.0000°E)
Time: 11:46:52
(UTC+00:00)

S-56A Canister/Altair - Pass Details

Date: 07 October 2020
Orbit: 633 x 2499 km, 38.9° (Epoch: 28 October)

Event Time Altitude Azimuth Distance (km) Brightness Sun altitude
Rises 10:08:55 0° 257° (WSW) 4,403 11.2 64.7°
Reaches altitude 10° 10:11:57 10° 267° (W) 3,681 10.9 65.4°
Maximum altitude 10:20:32 33° 327° (NNW) 2,901 10.7 67.5°
Drops below altitude 10° 10:32:03 10° 25° (NNE) 4,927 11.8 70.3°
Sets 10:36:57 0° 34° (NE) 6,083 12.2 71.4°
